Weather History for Farmington, NM

Change the Weather History Date:

Wednesday, May 1, 2013

  Actual Average Record
Temperature  
Mean Temperature 58 °F -  
Max Temperature 69 °F 69 °F 85 °F (1992)
Min Temperature 46 °F 37 °F 27 °F (2011)
Degree Days  
Heating Degree Days 8    
Growing Degree Days 8 (Base 50)    
Moisture  
Dew Point 6 °F    
Average Humidity 13    
Maximum Humidity 43    
Minimum Humidity 4    
Precipitation  
Precipitation 0.00 in - - ()
Sea Level Pressure  
Sea Level Pressure 29.91 in    
Wind  
Wind Speed 15 mph (West)    
Max Wind Speed 23 mph    
Max Gust Speed 41 mph    
Visibility 10 miles    
Events      
Averages and records for this station are not official NWS values.
T = Trace of Precipitation, MM = Missing Value Source: NWS Daily Summary

Daily Weather History Graph

Daily Weather History Graph

Search for Another Location

Airport:

Trip Planner

Search our weather history database for the weather conditions in past years. The results will help you decide how hot, cold, wet, or windy it might be!

Date:

Astronomy

May. 01, 2013 Rise Set
Actual Time 6:18 AM MDT 8:01 PM MDT
Civil Twilight 5:50 AM MDT 8:29 PM MDT
Nautical Twilight 5:17 AM MDT 9:03 PM MDT
Astronomical Twilight 4:41 AM MDT 9:39 PM MDT
Moon 1:13 AM MDT (5/1) 12:00 PM MDT (5/1)
Length of Visible Light 14h 38m
Length of Day
13h 43m
Waning Gibbous, 58% of the Moon is Illuminated
May 1
Waning Gibbous
May 2
Last Quarter
May 9
New
May 17
First Quarter
May 24
Full

Hourly Weather History & Observations

Time (MDT) Temp. Windchill Dew Point Humidity Pressure Visibility Wind Dir Wind Speed Gust Speed Precip Events Conditions
12:53 AM 62.1 °F - 12.9 °F 15% 29.65 in 10.0 mi WSW 13.8 mph - N/A   Clear
1:53 AM 63.0 °F - 10.9 °F 13% 29.65 in 10.0 mi WSW 16.1 mph - N/A   Clear
2:53 AM 60.1 °F - 10.9 °F 14% 29.64 in 10.0 mi WSW 13.8 mph - N/A   Clear
3:50 AM 62.6 °F - 10.4 °F 13% 29.86 in 10.0 mi West 19.6 mph 27.6 mph N/A   Partly Cloudy
3:53 AM 63.0 °F - 10.9 °F 13% 29.67 in 10.0 mi West 23.0 mph 31.1 mph N/A   Partly Cloudy
4:53 AM 60.1 °F - 12.9 °F 16% 29.72 in 10.0 mi West 10.4 mph - N/A   Clear
5:53 AM 52.0 °F - 21.9 °F 31% 29.78 in 10.0 mi WSW 11.5 mph - N/A   Clear
6:53 AM 48.9 °F - 27.0 °F 43% 29.84 in 10.0 mi WSW 9.2 mph - N/A   Clear
7:53 AM 54.0 °F - 28.0 °F 37% 29.86 in 10.0 mi West 8.1 mph - N/A   Clear
8:53 AM 57.9 °F - 28.0 °F 32% 29.89 in 10.0 mi West 15.0 mph 20.7 mph N/A   Clear
9:53 AM 60.1 °F - 25.0 °F 26% 29.90 in 10.0 mi West 18.4 mph 25.3 mph N/A   Clear
10:53 AM 63.0 °F - 21.0 °F 20% 29.92 in 10.0 mi West 16.1 mph 26.5 mph N/A   Clear
11:53 AM 64.0 °F - 12.9 °F 14% 29.92 in 10.0 mi West 19.6 mph 29.9 mph N/A   Partly Cloudy
12:53 PM 64.9 °F - 12.0 °F 13% 29.91 in 10.0 mi West 18.4 mph 28.8 mph N/A   Clear
1:53 PM 66.9 °F - 9.0 °F 10% 29.91 in 10.0 mi West 23.0 mph 31.1 mph N/A   Clear
2:53 PM 66.9 °F - -5.1 °F 6% 29.92 in 10.0 mi West 23.0 mph 41.4 mph N/A   Clear
3:53 PM 66.9 °F - -14.1 °F 4% 29.91 in 10.0 mi WNW 19.6 mph 34.5 mph N/A   Clear
4:53 PM 64.9 °F - -9.9 °F 5% 29.93 in 10.0 mi WNW 21.9 mph 35.7 mph N/A   Clear
5:53 PM 63.0 °F - -14.1 °F 4% 29.98 in 10.0 mi WNW 18.4 mph 31.1 mph N/A   Clear
6:53 PM 59.0 °F - -11.0 °F 6% 30.04 in 10.0 mi NW 15.0 mph 28.8 mph N/A   Clear
7:53 PM 54.0 °F - -9.9 °F 7% 30.08 in 10.0 mi NNW 17.3 mph 26.5 mph N/A   Clear
8:53 PM 51.1 °F - -11.9 °F 7% 30.12 in 10.0 mi NW 11.5 mph 18.4 mph N/A   Clear
9:53 PM 46.9 °F - -14.1 °F 7% 30.16 in 10.0 mi NNW 9.2 mph - N/A   Clear
10:53 PM 46.0 °F 41.4 °F -13.0 °F 8% 30.19 in 10.0 mi NW 9.2 mph - N/A   Clear
11:53 PM 46.0 °F 40.2 °F -6.0 °F 11% 30.20 in 10.0 mi NW 12.7 mph - N/A   Clear